Weather History for Carson City, NV

Change the Weather History Date:

Wednesday, June 4, 2014

  Actual Average Record
Temperature  
Mean Temperature 67 °F -  
Max Temperature 84 °F 77 °F 91 °F (2013)
Min Temperature 50 °F 43 °F 42 °F (2012)
Cooling Degree Days 2    
Growing Degree Days 17 (Base 50)    
Moisture  
Dew Point 26 °F    
Average Humidity 23    
Maximum Humidity 50    
Minimum Humidity 9    
Precipitation  
Precipitation 0.00 in - - ()
Sea Level Pressure  
Sea Level Pressure 30.03 in    
Wind  
Wind Speed 3 mph (NNE)    
Max Wind Speed 14 mph    
Max Gust Speed 17 mph    
Visibility 10 miles    
Events      
Averages and records for this station are not official NWS values.
T = Trace of Precipitation, MM = Missing Value Source: NWS Daily Summary

Daily Weather History Graph

Daily Weather History Graph

Search for Another Location

Airport:

Trip Planner

Search our weather history database for the weather conditions in past years. The results will help you decide how hot, cold, wet, or windy it might be!

Date:

Astronomy

Jun. 04, 2014 Rise Set
Actual Time 5:33 AM PDT 8:21 PM PDT
Civil Twilight 5:01 AM PDT 8:53 PM PDT
Nautical Twilight 4:21 AM PDT 9:33 PM PDT
Astronomical Twilight 3:36 AM PDT 10:18 PM PDT
Moon 11:55 AM PDT (6/4) 12:24 AM PDT (6/4)
Length of Visible Light 15h 51m
Length of Day
14h 47m
Waxing Crescent, 40% of the Moon is Illuminated
Jun 4
Waxing Crescent
Jun 5
First Quarter
Jun 12
Full
Jun 19
Last Quarter
Jun 27
New

Hourly Weather History & Observations

Time (PDT) Temp. Dew Point Humidity Pressure Visibility Wind Dir Wind Speed Gust Speed Precip Events Conditions
12:15 AM 62.6 °F 26.6 °F 26% 30.02 in 10.0 mi Calm Calm - N/A   Scattered Clouds
12:35 AM 62.6 °F 26.6 °F 26% 30.02 in 10.0 mi North 5.8 mph - N/A   Mostly Cloudy
12:55 AM 64.4 °F 26.6 °F 24% 30.03 in 10.0 mi NW 5.8 mph - N/A   Mostly Cloudy
1:15 AM 62.6 °F 28.4 °F 27% 30.03 in 10.0 mi Calm Calm - N/A   Mostly Cloudy
1:35 AM 59.0 °F 30.2 °F 34% 30.03 in 10.0 mi Calm Calm - N/A   Mostly Cloudy
1:55 AM 60.8 °F 28.4 °F 29% 30.03 in 10.0 mi Calm Calm - N/A   Mostly Cloudy
2:15 AM 62.6 °F 26.6 °F 26% 30.03 in 10.0 mi NW 8.1 mph - N/A   Mostly Cloudy
2:35 AM 59.0 °F 28.4 °F 31% 30.03 in 10.0 mi Calm Calm - N/A   Partly Cloudy
2:55 AM 55.4 °F 32.0 °F 41% 30.03 in 10.0 mi East 3.5 mph - N/A   Clear
3:15 AM 53.6 °F 32.0 °F 44% 30.04 in 10.0 mi Calm Calm - N/A   Clear
3:35 AM 55.4 °F 28.4 °F 36% 30.04 in 10.0 mi Calm Calm - N/A   Clear
3:55 AM 55.4 °F 32.0 °F 41% 30.05 in 10.0 mi SW 3.5 mph - N/A   Clear
4:15 AM 53.6 °F 32.0 °F 44% 30.05 in 10.0 mi Calm Calm - N/A   Clear
4:35 AM 53.6 °F 32.0 °F 44% 30.05 in 10.0 mi Calm Calm - N/A   Clear
4:55 AM 53.6 °F 30.2 °F 41% 30.05 in 10.0 mi West 3.5 mph - N/A   Clear
5:15 AM 51.8 °F 30.2 °F 44% 30.05 in 10.0 mi Calm Calm - N/A   Clear
5:35 AM 51.8 °F 32.0 °F 47% 30.05 in 10.0 mi Calm Calm - N/A   Clear
5:55 AM 50.0 °F 32.0 °F 50% 30.06 in 10.0 mi Calm Calm - N/A   Clear
6:15 AM 50.0 °F 32.0 °F 50% 30.06 in 10.0 mi Calm Calm - N/A   Clear
6:35 AM 51.8 °F 32.0 °F 47% 30.07 in 10.0 mi Calm Calm - N/A   Clear
6:55 AM 53.6 °F 32.0 °F 44% 30.07 in 10.0 mi Calm Calm - N/A   Clear
7:15 AM 53.6 °F 32.0 °F 44% 30.07 in 10.0 mi Calm Calm - N/A   Clear
7:35 AM 55.4 °F 30.2 °F 38% 30.07 in 10.0 mi Calm Calm - N/A   Clear
7:55 AM 57.2 °F 28.4 °F 33% 30.07 in 10.0 mi Calm Calm - N/A   Clear
8:15 AM 59.0 °F 24.8 °F 27% 30.07 in 10.0 mi SSW 3.5 mph - N/A   Clear
8:35 AM 60.8 °F 23.0 °F 23% 30.07 in 10.0 mi SW 3.5 mph - N/A   Clear
8:55 AM 62.6 °F 26.6 °F 26% 30.08 in 10.0 mi SSW 3.5 mph - N/A   Clear
9:15 AM 64.4 °F 28.4 °F 26% 30.08 in 10.0 mi SSW 3.5 mph - N/A   Clear
9:35 AM 66.2 °F 30.2 °F 26% 30.07 in 10.0 mi Calm Calm - N/A   Clear
9:55 AM 68.0 °F 32.0 °F 26% 30.07 in 10.0 mi Calm Calm - N/A   Clear
10:15 AM 69.8 °F 32.0 °F 25% 30.06 in 10.0 mi WSW 3.5 mph - N/A   Clear
10:35 AM 71.6 °F 30.2 °F 22% 30.06 in 10.0 mi South 3.5 mph - N/A   Clear
10:55 AM 71.6 °F 30.2 °F 22% 30.06 in 10.0 mi Calm Calm - N/A   Clear
11:15 AM 75.2 °F 30.2 °F 19% 30.06 in 10.0 mi West 5.8 mph - N/A   Clear
11:35 AM 75.2 °F 30.2 °F 19% 30.06 in 10.0 mi Calm Calm - N/A   Clear
11:55 AM 77.0 °F 26.6 °F 16% 30.05 in 10.0 mi ENE 6.9 mph - N/A   Clear
12:15 PM 77.0 °F 24.8 °F 14% 30.05 in 10.0 mi NE 5.8 mph - N/A   Clear
12:35 PM 78.8 °F 24.8 °F 14% 30.04 in 10.0 mi NNE 3.5 mph - N/A   Clear
12:55 PM 80.6 °F 24.8 °F 13% 30.04 in 10.0 mi ENE 3.5 mph - N/A   Clear
1:15 PM 78.8 °F 21.2 °F 12% 30.03 in 10.0 mi WSW 3.5 mph - N/A   Clear
1:35 PM 80.6 °F 23.0 °F 12% 30.03 in 10.0 mi ENE 9.2 mph - N/A   Clear
1:55 PM 82.4 °F 23.0 °F 11% 30.02 in 10.0 mi Calm Calm - N/A   Clear
2:15 PM 80.6 °F 21.2 °F 11% 30.02 in 10.0 mi SE 6.9 mph - N/A   Clear
2:35 PM 80.6 °F 21.2 °F 11% 30.01 in 10.0 mi WSW 4.6 mph - N/A   Clear
2:55 PM 82.4 °F 21.2 °F 10% 30.01 in 10.0 mi NNE 8.1 mph 17.3 mph N/A   Clear
3:15 PM 82.4 °F 19.4 °F 10% 30.01 in 9.0 mi West 8.1 mph - N/A   Clear
3:35 PM 82.4 °F 19.4 °F 10% 30.00 in 10.0 mi South 3.5 mph - N/A   Clear
3:55 PM 80.6 °F 19.4 °F 10% 29.99 in 10.0 mi NNE 3.5 mph - N/A   Clear
4:15 PM 84.2 °F 19.4 °F 9% 29.99 in 10.0 mi East 4.6 mph 16.1 mph N/A   Clear
4:35 PM 82.4 °F 19.4 °F 10% 29.99 in 10.0 mi East 4.6 mph - N/A   Clear
4:55 PM 82.4 °F 17.6 °F 9% 29.98 in 10.0 mi WSW 3.5 mph - N/A   Clear
5:15 PM 82.4 °F 17.6 °F 9% 29.98 in 10.0 mi South 5.8 mph - N/A   Clear
5:35 PM 82.4 °F 19.4 °F 10% 29.98 in 10.0 mi East 5.8 mph - N/A   Clear
5:55 PM 84.2 °F 19.4 °F 9% 29.97 in 10.0 mi East 9.2 mph - N/A   Clear
6:15 PM 82.4 °F 19.4 °F 10% 29.97 in 10.0 mi SSE 3.5 mph - N/A   Clear
6:35 PM 82.4 °F 19.4 °F 10% 29.97 in 10.0 mi ENE 11.5 mph - N/A   Clear
6:55 PM 82.4 °F 17.6 °F 9% 29.97 in 10.0 mi East 8.1 mph - N/A   Clear
7:15 PM 80.6 °F 17.6 °F 10% 29.97 in 10.0 mi East 8.1 mph - N/A   Clear
7:35 PM 80.6 °F 19.4 °F 10% 29.98 in 10.0 mi NE 3.5 mph - N/A   Clear
7:55 PM 80.6 °F 21.2 °F 11% 29.98 in 10.0 mi NNW 5.8 mph - N/A   Clear
8:15 PM 75.2 °F 30.2 °F 19% 29.99 in 10.0 mi North 6.9 mph - N/A   Clear
8:35 PM 75.2 °F 26.6 °F 17% 29.99 in 10.0 mi NNW 8.1 mph - N/A   Clear
8:55 PM 71.6 °F 24.8 °F 17% 29.99 in 10.0 mi NNW 6.9 mph - N/A   Clear
9:15 PM 71.6 °F 28.4 °F 20% 30.00 in 10.0 mi North 8.1 mph - N/A   Clear
9:35 PM 73.4 °F 23.0 °F 15% 30.01 in 10.0 mi NNW 13.8 mph - N/A   Clear
9:55 PM 71.6 °F 23.0 °F 16% 30.02 in 10.0 mi Calm Calm - N/A   Clear
10:15 PM 69.8 °F 19.4 °F 15% 30.02 in 10.0 mi NNW 3.5 mph - N/A   Clear
10:35 PM 68.0 °F 19.4 °F 16% 30.03 in 10.0 mi Calm Calm - N/A   Clear
10:55 PM 66.2 °F 24.8 °F 21% 30.03 in 10.0 mi Calm Calm - N/A   Clear
11:15 PM 64.4 °F 24.8 °F 22% 30.03 in 10.0 mi Calm Calm - N/A   Clear
11:35 PM 62.6 °F 24.8 °F 24% 30.03 in 10.0 mi ENE 4.6 mph - N/A   Clear
11:55 PM 60.8 °F 24.8 °F 25% 30.03 in 10.0 mi Calm Calm - N/A   Clear